Voltar ao catálogo

STARLINK-3805

AtivoComunicaçõesVLEO
NORAD 52377·PAYLOAD·🇺🇸 United States

Lançado Apr 29, 2022 de Cape Canaveral Space Force Station

Loading…

Próximas Passagens (próximas 24 horas)

TLE

AtualizadoSource: CelesTrak SupGP

Época: Sep 15, 2026, 02:06 UTC

1 52377C 22045AY  26258.08798611 -.00030332  00000+0 -89631-3 0  2580
2 52377  53.1585  50.6728 0001206  85.0795 356.7474 15.34400702    17

Acompanhe STARLINK-3805 em tempo real com AllMySat

Download on the App Store